This is the latest recevied weather packets stored in our database for station/object W5CRT. If no packets are shown the sender has not sent any weather packets the latest 10 day(s).
| Time | Temp. | Humidity | Pressure | Rain* | Wind** | Luminosity | Snow |
|---|---|---|---|---|---|---|---|
| 1777513042 | 16.67° C | 83% | 1011.4 hPa | 0 mm | - | 0 W/m² | - |
| 1777512738 | 16.67° C | 83% | 1011.4 hPa | 0 mm | - | 0 W/m² | - |
| 1777512435 | 16.67° C | 83% | 1011.5 hPa | 0 mm | - | 0 W/m² | - |
| 1777512132 | 16.67° C | 83% | 1011.3 hPa | 0 mm | - | 0 W/m² | - |
| 1777511830 | 16.67° C | 83% | 1011.2 hPa | 0 mm | - | 0 W/m² | - |
| 1777511527 | 16.67° C | 84% | 1010.8 hPa | 0 mm | - | 1 W/m² | - |
| 1777511223 | 16.67° C | 83% | 1011.2 hPa | 0 mm | - | 2 W/m² | - |
| 1777510919 | 16.67° C | 83% | 1011.3 hPa | 0 mm | - | 3 W/m² | - |
| 1777510616 | 16.67° C | 83% | 1011.7 hPa | 0 mm | - | 4 W/m² | - |
| 1777510313 | 16.67° C | 82% | 1011.4 hPa | 0 mm | - | 10 W/m² | - |
| 1777510009 | 17.22° C | 82% | 1011.2 hPa | 0 mm | - | 19 W/m² | - |
| 1777509705 | 17.22° C | 82% | 1011.1 hPa | 0 mm | - | 20 W/m² | - |
| 1777509401 | 17.22° C | 81% | 1011.2 hPa | 0 mm | - | 26 W/m² | - |
| 1777509099 | 17.22° C | 81% | 1011 hPa | 0 mm | - | 24 W/m² | - |
| 1777508796 | 17.22° C | 82% | 1011 hPa | 0 mm | - | 21 W/m² | - |
| 1777508493 | 17.22° C | 82% | 1010.8 hPa | 0 mm | - | 32 W/m² | - |
| 1777508190 | 17.22° C | 83% | 1010.9 hPa | 0 mm | - | 40 W/m² | - |
| 1777507886 | 17.22° C | 83% | 1011.6 hPa | 0 mm | - | 18 W/m² | - |
| 1777507584 | 16.67° C | 83% | 1011.3 hPa | 0 mm | - | 15 W/m² | - |
| 1777507281 | 17.22° C | 83% | 1010.9 hPa | 0 mm | - | 17 W/m² | - |
| 1777506978 | 16.67° C | 84% | 1010.6 hPa | 0 mm | - | 15 W/m² | - |
| 1777506675 | 16.67° C | 83% | 1010.4 hPa | 0 mm | - | 50 W/m² | - |
| 1777506371 | 16.67° C | 83% | 1010.4 hPa | 0 mm | - | 48 W/m² | - |
| 1777506067 | 16.67° C | 83% | 1010.7 hPa | 0 mm | - | 64 W/m² | - |
| 1777505763 | 16.67° C | 82% | 1011.2 hPa | 0 mm | - | 54 W/m² | - |
* Rain latest hour (hover to see other rain measurements)
** Current wind speed in m/s (hover to see current wind gust speed)